Anoka County, MN

7:14 PM CST on November 20, 2019 (GMT -0600)
Anoka County / Blaine Airport

Weather History for KANE - October, 2019

Change the Weather History Date:

Saturday, October 19, 2019

  Actual Average Record
Temperature  
Mean Temperature 55 °F -  
Max Temperature 68 °F 54 °F 84 °F (2000)
Min Temperature 42 °F 37 °F 30 °F (1996)
Degree Days  
Heating Degree Days 10    
Growing Degree Days 5 (Base 50)    
Moisture  
Dew Point 42 °F    
Average Humidity 63    
Maximum Humidity 88    
Minimum Humidity 28    
Precipitation  
Precipitation 0.00 in - - ()
Sea Level Pressure  
Sea Level Pressure 29.64 in    
Wind  
Wind Speed 8 mph (SSW)    
Max Wind Speed 16 mph    
Max Gust Speed 22 mph    
Visibility 10 miles    
Events Rain    
Averages and records for this station are not official NWS values.
T = Trace of Precipitation, MM = Missing Value Source: NWS Daily Summary

Daily Weather History Graph

Daily Weather History Graph

Search for Another Location

Airport or City:

Astronomy

Oct. 19, 2019 Rise Set
Actual Time 7:33 AM CDT 6:21 PM CDT
Civil Twilight 7:03 AM CDT 6:51 PM CDT
Nautical Twilight 6:29 AM CDT 7:25 PM CDT
Astronomical Twilight 5:55 AM CDT 7:59 PM CDT
Moon 10:19 PM CDT (10/19) 1:18 PM CDT (10/19)
Length of Visible Light 11h 47m
Length of Day
10h 47m
Waning Gibbous, 69% of the Moon is Illuminated
Oct 19
Waning Gibbous
Oct 21
Last Quarter
Oct 27
New
Nov 4
First Quarter
Nov 12
Full

Hourly Weather History & Observations

Time (CDT) Temp. Dew Point Humidity Pressure Visibility Wind Dir Wind Speed Gust Speed Precip Events Conditions
12:16 AM 60.8 °F 44.6 °F 55% 29.57 in 10.0 mi SSE 13.8 mph 21.9 mph N/A   Clear
12:36 AM 59.0 °F 44.6 °F 59% 29.57 in 10.0 mi South 16.1 mph 20.7 mph N/A   Clear
12:58 AM 57.2 °F 44.6 °F 63% 29.56 in 10.0 mi SSE 15.0 mph 20.7 mph N/A   Clear
1:16 AM 57.2 °F 44.6 °F 63% 29.57 in 10.0 mi SSE 11.5 mph - N/A   Clear
1:36 AM 57.2 °F 44.6 °F 63% 29.57 in 10.0 mi SSE 13.8 mph - N/A   Clear
1:56 AM 57.2 °F 44.6 °F 63% 29.57 in 10.0 mi South 12.7 mph - N/A   Clear
2:15 AM 55.4 °F 44.6 °F 67% 29.57 in 10.0 mi South 11.5 mph - N/A   Clear
2:19 AM 55.4 °F 44.6 °F 67% 29.57 in 10.0 mi South 10.4 mph - N/A   Clear
2:38 AM 55.4 °F 46.4 °F 72% 29.58 in 10.0 mi South 11.5 mph - N/A   Clear
2:55 AM 55.4 °F 46.4 °F 72% 29.58 in 10.0 mi South 10.4 mph - N/A   Clear
3:15 AM 55.4 °F 46.4 °F 72% 29.58 in 10.0 mi South 8.1 mph - N/A   Clear
3:36 AM 55.4 °F 46.4 °F 72% 29.59 in 10.0 mi SSW 6.9 mph - N/A   Clear
3:59 AM 55.4 °F 46.4 °F 72% 29.59 in 10.0 mi Calm Calm - N/A   Clear
4:16 AM 55.4 °F 46.4 °F 72% 29.59 in 10.0 mi Calm Calm - N/A   Clear
4:36 AM 55.4 °F 46.4 °F 72% 29.60 in 10.0 mi Calm Calm - N/A   Clear
4:56 AM 55.4 °F 46.4 °F 72% 29.61 in 10.0 mi Calm Calm - N/A   Clear
5:15 AM 55.4 °F 46.4 °F 72% 29.61 in 10.0 mi Calm Calm - N/A   Clear
5:19 AM 55.4 °F 46.4 °F 72% 29.61 in 10.0 mi Calm Calm - N/A   Clear
5:38 AM 53.6 °F 46.4 °F 77% 29.62 in 10.0 mi Calm Calm - N/A   Clear
6:15 AM 53.6 °F 46.4 °F 77% 29.64 in 10.0 mi Calm Calm - N/A   Scattered Clouds
6:36 AM 53.6 °F 46.4 °F 77% 29.63 in 10.0 mi Calm Calm - N/A   Mostly Cloudy
6:45 AM 53.6 °F 46.4 °F 77% 29.62 in 10.0 mi West 4.6 mph - N/A   Mostly Cloudy
7:50 AM 51.8 °F 46.4 °F 82% 29.62 in 10.0 mi West 4.6 mph - N/A   Overcast
8:45 AM 51.8 °F 46.4 °F 82% 29.67 in 10.0 mi WSW 6.9 mph - N/A Rain Light Rain
9:45 AM 51.8 °F 48.2 °F 88% 29.68 in 10.0 mi Variable 4.6 mph - N/A   Mostly Cloudy
10:45 AM 53.6 °F 46.4 °F 77% 29.68 in 10.0 mi SW 4.6 mph - N/A   Mostly Cloudy
11:45 AM 57.2 °F 46.4 °F 67% 29.69 in 10.0 mi SW 6.9 mph - N/A   Scattered Clouds
12:45 PM 59.0 °F 46.4 °F 63% 29.68 in 10.0 mi South 6.9 mph - N/A   Scattered Clouds
1:45 PM 64.4 °F 44.6 °F 49% 29.66 in 10.0 mi SW 8.1 mph - N/A   Partly Cloudy
2:45 PM 66.2 °F 42.8 °F 43% 29.64 in 10.0 mi SSW 8.1 mph - N/A   Partly Cloudy
3:45 PM 68.0 °F 33.8 °F 28% 29.64 in 10.0 mi West 11.5 mph - N/A   Partly Cloudy
4:45 PM 66.2 °F 33.8 °F 30% 29.64 in 10.0 mi West 9.2 mph 16.1 mph N/A   Partly Cloudy
5:45 PM 64.4 °F 32.0 °F 30% 29.65 in 10.0 mi West 9.2 mph - N/A   Clear
6:45 PM 60.8 °F 30.2 °F 31% 29.67 in 10.0 mi West 6.9 mph - N/A   Clear
7:45 PM 59.0 °F 32.0 °F 36% 29.69 in 10.0 mi SW 5.8 mph - N/A   Clear
8:45 PM 55.4 °F 33.8 °F 44% 29.70 in 10.0 mi West 5.8 mph - N/A   Clear
9:16 PM 55.4 °F 33.8 °F 44% 29.72 in 10.0 mi Calm Calm - N/A   Clear
9:36 PM 53.6 °F 33.8 °F 47% 29.72 in 10.0 mi Calm Calm - N/A   Clear
9:59 PM 53.6 °F 33.8 °F 47% 29.72 in 10.0 mi Calm Calm - N/A   Clear
10:16 PM 48.2 °F 33.8 °F 58% 29.72 in 10.0 mi Calm Calm - N/A   Clear
10:36 PM 46.4 °F 35.6 °F 66% 29.73 in 10.0 mi Calm Calm - N/A   Clear
10:55 PM 42.8 °F 37.4 °F 81% 29.73 in 10.0 mi Calm Calm - N/A   Clear
11:15 PM 48.2 °F 33.8 °F 58% 29.73 in 10.0 mi Calm Calm - N/A   Clear
11:37 PM 42.8 °F 37.4 °F 81% 29.74 in 10.0 mi Calm Calm - N/A   Clear
11:55 PM 42.8 °F 37.4 °F 81% 29.74 in 10.0 mi Calm Calm - N/A   Clear